Orlando International

Airport
ICAO code: 
KMCO
Summary
ICAO Region: 
NAM
Territory: 
Location: 
Orlando, Florida,
Coordinates: 
Aerial View: 
28° 25' 52.978" N, 81° 18' 30.375" W
Airport WX: 
Lightning
Metar
Observation
KMCO 262353Z 01011KT 10SM -RA OVC016 16/14 A3009 RMK AO2 RAB2256E27B44 SLP188 P0000 60005 T01610139 10172 20161 51021
Station
Orlando, Orlando International Airport
Date/Time
2022-01-26 23:53:00
Wind direction
10°
Wind speed
11 kts
Lowest cloud amount
overcast
Temperature
16.1°C
Dew point
13.9°C
Humidity
86%
Weather condition
light rain

Description

International airport 6 nm south east of Orlando, Florida, USA.

Climatology

Humid “subtropical” climate (Köppen climate classification Cfa) - characterized by hot, humid summers and cool winters. From October to March the temperatures are more moderate and rain less frequent. Most summer rainfall occurs during thunderstorms and occasional tropical storms (hurricanes).

Runways

Designator Length Width Surface Rops
17L/35R 2743 46 ASP Yes/Yes
17R/35L 3048 46 CON Yes/Yes
18L/36R 3659 61 PEM Yes/Yes
18R/36L 3659 61 CON Yes/Yes
Airport map: 
Aerial View: 

Accidents and Serious Incidents at or in the vicinity of KMCO

SKYbrary Partners:

Safety knowledge contributed by: